SP5QWJ-2 Weather Reports


time (UTC)temp
F
wind
direction
speed
knots
gust
knots
rain 1hr
in
rain 24hr
in
rain mn
in
humidity
%
barometer
mb
20260504031651 60 0.0 0.0 0.00 0.00 0.00 50 1012.2
20260504030140 60 0.0 0.0 0.00 0.00 0.00 51 1012.2
20260504024629 59 0.0 0.0 0.00 0.00 0.00 51 1012.2
20260504023119 60 0.0 0.0 0.00 0.00 0.00 52 1012.2
20260504021608 60 0.0 0.0 0.00 0.00 0.00 52 1012.3
20260504020057 60 0.0 0.0 0.00 0.00 0.00 54 1012.4
20260504014546 59 0.0 0.0 0.00 0.00 0.00 57 1012.3
20260504013034 59 0.0 0.0 0.00 0.00 0.00 57 1012.4
20260504011520 59 0.0 0.0 0.00 0.00 0.00 58 1012.4
20260504010010 58 0.0 0.0 0.00 0.00 0.00 60 1012.3
20260504004458 58 0.0 0.0 0.00 0.00 0.00 60 1012.3
20260504002948 58 0.0 0.0 0.00 0.00 0.00 59 1012.3
20260504001436 58 0.0 0.0 0.00 0.00 0.00 59 1012.3
20260503235925 58 0.0 0.0 0.00 0.00 0.00 58 1012.3
20260503234414 58 0.0 0.0 0.00 0.00 0.00 58 1012.4
20260503232903 58 0.0 0.0 0.00 0.00 0.00 57 1012.4
20260503231350 59 0.0 0.0 0.00 0.00 0.00 55 1012.5
20260503225839 59 0.0 0.0 0.00 0.00 0.00 54 1012.5
20260503224328 60 0.0 0.0 0.00 0.00 0.00 53 1012.5
20260503222818 60 0.0 0.0 0.00 0.00 0.00 52 1012.6
20260503221306 61 0.0 0.0 0.00 0.00 0.00 51 1012.6
20260503215755 61 0.0 0.0 0.00 0.00 0.00 51 1012.6
20260503214244 61 0.0 0.0 0.00 0.00 0.00 51 1012.6
20260503212733 62 0.0 0.0 0.00 0.00 0.00 50 1012.6
20260503211222 62 0.0 0.0 0.00 0.00 0.00 49 1012.7
20260503205710 62 0.0 0.0 0.00 0.00 0.00 48 1012.7
20260503204211 63 0.0 0.0 0.00 0.00 0.00 47 1012.8
20260503202659 63 0.0 0.0 0.00 0.00 0.00 46 1012.6
20260503201148 64 0.0 0.0 0.00 0.00 0.00 45 1012.6
20260503195637 64 0.0 0.0 0.00 0.00 0.00 44 1012.5
20260503194125 65 0.0 0.0 0.00 0.00 0.00 43 1012.6
20260503192615 65 0.0 0.0 0.00 0.00 0.00 42 1012.7
20260503191102 66 0.0 0.0 0.00 0.00 0.00 40 1012.7
20260503185551 67 0.0 0.0 0.00 0.00 0.00 39 1012.6
20260503184040 67 0.0 0.0 0.00 0.00 0.00 38 1012.6
20260503182529 69 0.0 0.0 0.00 0.00 0.00 36 1012.5
20260503175506 72 0.0 0.0 0.00 0.00 0.00 32 1012.4
20260503173955 73 0.0 0.0 0.00 0.00 0.00 31 1012.3
20260503172444 74 0.0 0.0 0.00 0.00 0.00 29 1012.4
20260503170933 76 0.0 0.0 0.00 0.00 0.00 28 1012.4
20260503081602 71 0.0 0.0 0.00 0.00 0.00 49 1016.9